GW1098 Weather Reports


time (UTC)temp
F
wind
direction
speed
knots
gust
knots
rain 1hr
in
rain 24hr
in
rain mn
in
humidity
%
barometer
mb
20260506201613 76 214 0.0 0.0 0.00 0.00 0.00 39 1018.5
20260506201109 75 189 1.7 2.6 0.00 0.00 0.00 42 1018.6
20260506200606 77 200 0.9 4.3 0.00 0.00 0.00 40 1018.8
20260506195559 74 220 0.9 4.3 0.00 0.00 0.00 43 1018.8
20260506195056 74 341 0.9 4.3 0.00 0.00 0.00 43 1018.9
20260506194554 73 211 1.7 2.6 0.00 0.00 0.00 44 1018.9
20260506194049 75 226 0.9 0.9 0.00 0.00 0.00 43 1018.8
20260506193547 75 221 1.7 5.2 0.00 0.00 0.00 42 1019.0
20260506193044 73 204 0.0 1.7 0.00 0.00 0.00 45 1019.0
20260506192541 73 248 1.7 4.3 0.00 0.00 0.00 45 1019.0
20260506192037 73 213 0.0 1.7 0.00 0.00 0.00 44 1019.2
20260506191534 73 208 0.0 2.6 0.00 0.00 0.00 45 1019.1
20260506191030 73 285 3.5 5.2 0.00 0.00 0.00 44 1019.2
20260506190527 72 231 2.6 2.6 0.00 0.00 0.00 46 1019.3
20260506190024 71 240 3.5 5.2 0.00 0.00 0.00 47 1019.5
20260506185521 72 218 3.5 4.3 0.00 0.00 0.00 47 1019.2
20260506185018 71 216 2.6 5.2 0.00 0.00 0.00 49 1019.1
20260506184515 72 211 1.7 1.7 0.00 0.00 0.00 46 1019.5
20260506184012 71 214 0.0 1.7 0.00 0.00 0.00 48 1019.5
20260506183508 69 215 0.9 4.3 0.00 0.00 0.00 50 1019.5
20260506183005 70 212 2.6 2.6 0.00 0.00 0.00 48 1019.6
20260506182502 72 272 2.6 7.8 0.00 0.00 0.00 49 1019.7
20260506181959 71 215 0.0 2.6 0.00 0.00 0.00 48 1019.7
20260506181457 71 214 0.0 0.9 0.00 0.00 0.00 48 1019.5
20260506180954 71 220 0.9 2.6 0.00 0.00 0.00 48 1019.7
20260506180450 70 222 2.6 4.3 0.00 0.00 0.00 49 1019.5
20260506175947 70 292 1.7 2.6 0.00 0.00 0.00 49 1019.6
20260506175444 67 242 2.6 4.3 0.00 0.00 0.00 51 1019.6
20260506174940 68 262 1.7 2.6 0.00 0.00 0.00 51 1019.7
20260506174438 68 224 1.7 2.6 0.00 0.00 0.00 51 1019.8
20260506173934 68 174 0.9 2.6 0.00 0.00 0.00 52 1019.9
20260506173432 68 206 0.9 1.7 0.00 0.00 0.00 51 1019.9
20260506172928 68 215 0.0 2.6 0.00 0.00 0.00 52 1019.8
20260506172425 68 215 0.0 2.6 0.00 0.00 0.00 53 1019.6
20260506171917 67 212 0.9 0.9 0.00 0.00 0.00 53 1019.7
20260506171414 68 226 1.7 4.3 0.00 0.00 0.00 53 1019.7
20260506170912 67 211 1.7 2.6 0.00 0.00 0.00 53 1019.7
20260506170407 67 208 0.0 0.0 0.00 0.00 0.00 52 1019.7
20260506165901 66 256 1.7 1.7 0.00 0.00 0.00 54 1019.8
20260506165359 64 197 0.9 4.3 0.00 0.00 0.00 58 1019.5
20260506164855 64 223 0.0 1.7 0.00 0.00 0.00 57 1019.8
20260506164351 64 225 0.0 1.7 0.00 0.00 0.00 56 1019.6
20260506163849 64 227 0.9 1.7 0.00 0.00 0.00 58 1019.6
20260506163344 65 286 2.6 2.6 0.00 0.00 0.00 55 1019.8
20260506162839 63 211 0.0 0.9 0.00 0.00 0.00 60 1019.7
20260506162337 63 218 0.0 1.7 0.00 0.00 0.00 59 1019.9
20260506161829 62 219 1.7 1.7 0.00 0.00 0.00 60 1019.9
20260506161326 62 87 1.7 2.6 0.00 0.00 0.00 60 1019.7
20260506160823 62 214 0.0 2.6 0.00 0.00 0.00 62 1019.7
20260506160320 62 219 0.0 2.6 0.00 0.00 0.00 62 1019.5
20260506155818 61 217 0.9 1.7 0.00 0.00 0.00 63 1019.6
20260506155314 61 239 0.0 1.7 0.00 0.00 0.00 63 1019.8
20260506153427 61 233 0.9 2.6 0.00 0.00 0.00 62 1019.7
20260506152925 62 217 0.9 1.7 0.00 0.00 0.00 61 1019.8
20260506152421 61 214 0.0 0.0 0.00 0.00 0.00 63 1019.8
20260506151920 60 232 0.9 0.9 0.00 0.00 0.00 65 1019.6
20260506151417 59 225 0.9 0.9 0.00 0.00 0.00 65 1019.8
20260506150914 58 198 0.9 1.7 0.00 0.00 0.00 67 1019.8
20260506150410 59 226 0.9 0.9 0.00 0.00 0.00 65 1019.7
20260506145908 58 240 0.0 1.7 0.00 0.00 0.00 67 1019.8
20260506145403 58 213 0.9 1.7 0.00 0.00 0.00 69 1019.8
20260506144901 58 214 0.0 0.9 0.00 0.00 0.00 68 1019.8
20260506144357 58 214 0.0 0.9 0.00 0.00 0.00 69 1019.8
20260506143856 58 225 0.0 0.9 0.00 0.00 0.00 68 1019.8
20260506143352 58 216 0.0 0.0 0.00 0.00 0.00 68 1020.0
20260506142851 58 215 0.0 0.0 0.00 0.00 0.00 68 1019.8
20260506142349 59 214 0.0 0.0 0.00 0.00 0.00 67 1019.8
20260506141847 59 214 0.0 0.0 0.00 0.00 0.00 67 1019.7
20260506141344 57 211 0.0 0.0 0.00 0.00 0.00 70 1019.6
20260506140842 54 210 0.0 0.0 0.00 0.00 0.00 74 1019.7
20260506140339 54 208 0.0 0.0 0.00 0.00 0.00 74 1019.5
20260506135836 54 209 0.0 0.0 0.00 0.00 0.00 74 1019.3
20260506135332 53 210 0.0 0.0 0.00 0.00 0.00 75 1019.6
20260506134829 52 210 0.0 0.0 0.00 0.00 0.00 80 1019.3
20260506134325 51 206 0.0 0.0 0.00 0.00 0.00 80 1019.2
20260506133823 50 198 0.0 0.0 0.00 0.00 0.00 84 1019.3
20260506133319 49 206 0.0 0.0 0.00 0.00 0.00 86 1019.3
20260506132816 48 206 0.0 0.0 0.00 0.00 0.00 87 1019.0
20260506132313 48 206 0.0 0.0 0.00 0.00 0.00 86 1019.0
20260506131811 48 207 0.0 0.0 0.00 0.00 0.00 86 1019.1
20260506131307 47 207 0.0 0.0 0.00 0.00 0.00 86 1019.5
20260506130804 48 205 0.0 0.0 0.00 0.00 0.00 86 1019.3
20260506130300 48 202 0.0 0.0 0.00 0.00 0.00 85 1019.1
20260506125759 48 205 0.0 0.0 0.00 0.00 0.00 85 1019.0
20260506125257 48 205 0.0 0.0 0.00 0.00 0.00 86 1018.9
20260506124755 48 202 0.0 0.0 0.00 0.00 0.00 87 1018.6
20260506124251 47 208 0.0 0.0 0.00 0.00 0.00 87 1018.7
20260506123749 47 210 0.0 0.0 0.00 0.00 0.00 87 1018.6
20260506123248 48 206 0.0 0.0 0.00 0.00 0.00 86 1018.9
20260506122744 48 205 0.0 0.0 0.00 0.00 0.00 86 1018.9
20260506122241 48 195 0.0 0.0 0.00 0.00 0.00 87 1018.8
20260506121739 48 201 0.0 0.0 0.00 0.00 0.00 87 1018.8
20260506121236 48 204 0.0 0.0 0.00 0.00 0.00 87 1018.7
20260506120733 48 205 0.0 0.0 0.00 0.00 0.00 86 1018.5
20260506120231 48 206 0.0 0.0 0.00 0.00 0.00 86 1018.6
20260506115728 48 206 0.0 0.0 0.00 0.00 0.00 85 1018.7
20260506115227 48 205 0.0 0.0 0.00 0.00 0.00 84 1018.6
20260506114724 48 201 0.0 0.0 0.00 0.00 0.00 85 1018.5
20260506114221 48 207 0.0 0.0 0.00 0.00 0.00 86 1018.8
20260506113720 48 187 0.0 0.0 0.00 0.00 0.00 86 1018.8
20260506113217 48 203 0.0 0.0 0.00 0.00 0.00 87 1018.6
20260506112713 48 208 0.0 0.0 0.00 0.00 0.00 86 1018.6
20260506112211 48 208 0.0 0.0 0.00 0.00 0.00 86 1018.6
20260506111708 48 198 0.0 0.0 0.00 0.00 0.00 86 1018.7
20260506111206 48 197 0.0 0.0 0.00 0.00 0.00 86 1018.5
20260506110703 48 204 0.0 0.0 0.00 0.00 0.00 86 1018.5
20260506110201 48 201 0.0 0.0 0.00 0.00 0.00 86 1018.6
20260506105657 48 207 0.0 0.0 0.00 0.00 0.00 86 1018.3
20260506105154 49 204 0.0 0.0 0.00 0.00 0.00 86 1018.5
20260506104652 49 202 0.0 0.0 0.00 0.00 0.00 85 1018.6
20260506104149 49 203 0.0 0.0 0.00 0.00 0.00 84 1018.7
20260506103646 49 205 0.0 0.0 0.00 0.00 0.00 84 1018.7
20260506103143 50 206 0.0 0.0 0.00 0.00 0.00 83 1018.8
20260506102641 50 204 0.0 0.0 0.00 0.00 0.00 83 1018.6
20260506102138 50 208 0.0 0.0 0.00 0.00 0.00 83 1018.8
20260506101635 50 207 0.0 0.0 0.00 0.00 0.00 82 1018.6
20260506101132 50 203 0.0 0.0 0.00 0.00 0.00 81 1018.7
20260506100630 50 198 0.0 0.0 0.00 0.00 0.00 82 1018.7
20260506100128 49 187 0.0 0.0 0.00 0.00 0.00 84 1018.6
20260506095627 50 203 0.0 0.0 0.00 0.00 0.00 83 1018.6
20260506095123 50 205 0.0 0.0 0.00 0.00 0.00 83 1018.7
20260506094620 49 197 0.0 0.0 0.00 0.00 0.00 83 1018.5
20260506094118 49 203 0.0 0.0 0.00 0.00 0.00 83 1018.7
20260506093616 50 203 0.0 0.0 0.00 0.00 0.00 83 1018.7
20260506093113 50 207 0.0 0.0 0.00 0.00 0.00 83 1018.9
20260506092611 50 208 0.0 0.0 0.00 0.00 0.00 82 1018.9
20260506092108 50 208 0.0 0.0 0.00 0.00 0.00 82 1018.8
20260506091606 50 205 0.0 0.0 0.00 0.00 0.00 82 1018.8
20260506091103 50 204 0.0 0.0 0.00 0.00 0.00 81 1019.0
20260506090601 50 206 0.0 0.0 0.00 0.00 0.00 82 1018.9
20260506090057 50 201 0.0 0.0 0.00 0.00 0.00 82 1018.8
20260506085554 50 208 0.0 0.0 0.00 0.00 0.00 82 1019.0
20260506085050 50 209 0.0 0.0 0.00 0.00 0.00 82 1019.1
20260506084547 50 204 0.0 0.9 0.00 0.00 0.00 82 1019.0
20260506084043 50 208 0.0 0.9 0.00 0.00 0.00 82 1019.0
20260506083541 50 206 0.0 0.0 0.00 0.00 0.00 82 1019.0
20260506083038 51 179 0.0 0.9 0.00 0.00 0.00 81 1019.0
20260506082534 51 203 0.0 0.0 0.00 0.00 0.00 81 1019.2
20260506082030 51 206 0.0 0.0 0.00 0.00 0.00 81 1019.3
20260506081529 51 203 0.0 0.0 0.00 0.00 0.00 81 1019.3
20260506081026 50 208 0.0 0.0 0.00 0.00 0.00 81 1019.0
20260506080523 50 214 0.0 0.0 0.00 0.00 0.00 81 1019.3
20260506073507 50 204 0.0 0.0 0.00 0.00 0.00 82 1019.3
20260506073004 50 202 0.0 0.0 0.00 0.00 0.00 82 1019.3
20260506072501 50 206 0.0 0.0 0.00 0.00 0.00 82 1019.1
20260506071959 50 205 0.0 0.0 0.00 0.00 0.00 81 1019.2
20260506071456 50 205 0.0 0.0 0.00 0.00 0.00 80 1019.2
20260506070953 51 205 0.0 0.0 0.00 0.00 0.00 80 1019.0
20260506070450 51 207 0.0 0.0 0.00 0.00 0.00 79 1019.0
20260506062428 52 211 0.0 0.9 0.00 0.00 0.00 77 1018.6
20260506061923 52 204 0.0 0.0 0.00 0.00 0.00 77 1018.5
20260506061420 52 205 0.0 0.0 0.00 0.00 0.00 78 1018.4
20260506060918 52 205 0.0 0.0 0.00 0.00 0.00 78 1018.5
20260506060416 52 205 0.0 0.0 0.00 0.00 0.00 78 1018.5
20260506051348 53 209 0.0 0.0 0.00 0.00 0.00 75 1018.2
20260506050845 54 204 0.0 0.9 0.00 0.00 0.00 74 1018.1
20260506050343 53 209 0.0 0.0 0.00 0.00 0.00 74 1018.1
20260506044833 53 206 0.0 0.0 0.00 0.00 0.00 75 1017.8
20260506044331 54 207 0.0 0.0 0.00 0.00 0.00 74 1017.7
20260506043828 54 203 0.0 0.0 0.00 0.00 0.00 73 1017.7
20260506043325 54 212 0.0 0.9 0.00 0.00 0.00 73 1017.9
20260506042823 55 204 0.0 0.9 0.00 0.00 0.00 73 1017.5
20260506042322 55 215 0.0 0.0 0.00 0.00 0.00 73 1017.4
20260506041821 55 209 0.0 0.9 0.00 0.00 0.00 72 1017.5
20260506041317 55 212 0.0 1.7 0.00 0.00 0.00 72 1017.2
20260506040814 55 210 0.0 0.0 0.00 0.00 0.00 71 1017.3
20260506040312 55 207 0.0 0.9 0.00 0.00 0.00 72 1017.4
20260506035808 55 207 0.0 0.9 0.00 0.00 0.00 71 1017.2
20260506035306 55 211 0.9 1.7 0.00 0.00 0.00 71 1017.2
20260506034803 55 219 0.9 1.7 0.00 0.00 0.00 70 1017.2
20260506034300 56 212 0.0 0.0 0.00 0.00 0.00 70 1017.2
20260506033756 56 205 0.0 0.0 0.00 0.00 0.00 70 1017.1
20260506033253 56 212 0.0 0.0 0.00 0.00 0.00 69 1017.1
20260506032750 57 205 0.0 1.7 0.00 0.00 0.00 68 1017.1
20260506032247 57 212 0.0 0.9 0.00 0.00 0.00 67 1017.0
20260506031744 57 213 0.0 0.0 0.00 0.00 0.00 67 1016.9
20260506031241 57 210 0.0 0.0 0.00 0.00 0.00 67 1016.7
20260506030739 57 213 0.0 0.0 0.00 0.00 0.00 66 1016.6
20260506030237 57 209 0.0 0.9 0.00 0.00 0.00 66 1016.6
20260506025733 58 224 0.0 1.7 0.00 0.00 0.00 66 1016.4
20260506025230 58 214 0.0 2.6 0.00 0.00 0.00 65 1016.5
20260506024727 58 228 0.9 2.6 0.00 0.00 0.00 64 1016.2
20260506024223 58 218 0.0 4.3 0.00 0.00 0.00 63 1016.2
20260506023720 59 209 0.0 2.6 0.00 0.00 0.00 63 1016.0
20260506023217 59 284 1.7 2.6 0.00 0.00 0.00 62 1016.0
20260506022713 59 212 0.0 0.9 0.00 0.00 0.00 62 1016.0
20260506022211 59 222 0.0 2.6 0.00 0.00 0.00 62 1016.1
20260506021709 60 208 1.7 4.3 0.00 0.00 0.00 61 1016.0
20260506021206 60 222 0.9 1.7 0.00 0.00 0.00 60 1015.7
20260506020703 60 242 0.9 2.6 0.00 0.00 0.00 60 1015.8
20260506020201 60 232 3.5 5.2 0.00 0.00 0.00 59 1015.9
20260506015658 60 209 1.7 2.6 0.00 0.00 0.00 60 1015.8
20260506015155 60 209 2.6 5.2 0.00 0.00 0.00 59 1015.7
20260506014652 60 222 4.3 6.1 0.00 0.00 0.00 60 1015.7
20260506014148 60 222 2.6 6.1 0.00 0.00 0.00 58 1015.8
20260506013646 61 210 0.9 5.2 0.00 0.00 0.00 57 1015.7
20260506013143 60 259 2.6 2.6 0.00 0.00 0.00 57 1015.6
20260506012639 61 270 4.3 7.0 0.00 0.00 0.00 56 1015.5
20260506012136 61 217 1.7 5.2 0.00 0.00 0.00 55 1015.4
20260506011633 61 228 0.0 4.3 0.00 0.00 0.00 55 1015.4
20260506011129 61 270 0.9 2.6 0.00 0.00 0.00 55 1015.7
20260506010628 62 255 3.5 4.3 0.00 0.00 0.00 53 1015.6
20260506010125 61 207 0.9 5.2 0.00 0.00 0.00 56 1015.5
20260506005622 62 234 4.3 7.8 0.00 0.00 0.00 54 1015.6
20260506005118 62 208 0.9 4.3 0.00 0.00 0.00 53 1015.6
20260506004615 63 267 0.9 4.3 0.00 0.00 0.00 50 1015.6
20260506004112 64 265 0.9 4.3 0.00 0.00 0.00 52 1015.4
20260506003609 64 207 0.9 1.7 0.00 0.00 0.00 52 1015.4
20260506003105 62 199 0.9 2.6 0.00 0.00 0.00 53 1015.4
20260506002601 62 290 6.1 7.8 0.00 0.00 0.00 52 1015.3
20260506002057 62 291 4.3 6.1 0.00 0.00 0.00 54 1015.4
20260506001553 63 206 1.7 6.1 0.00 0.00 0.00 53 1015.3
20260506001050 63 358 0.9 4.3 0.00 0.00 0.00 52 1015.2
20260506000548 62 257 1.7 2.6 0.00 0.00 0.00 53 1015.3
20260506000045 61 208 2.6 4.3 0.00 0.00 0.00 54 1015.3
20260505235543 61 280 0.9 2.6 0.00 0.00 0.00 54 1015.1
20260505235040 61 215 2.6 2.6 0.00 0.00 0.00 54 1015.3
20260505234537 60 223 0.9 1.7 0.00 0.00 0.00 56 1015.3
20260505234033 60 229 0.9 2.6 0.00 0.00 0.00 58 1015.1
20260505233531 60 249 0.9 4.3 0.00 0.00 0.00 60 1015.4
20260505233028 60 252 0.9 2.6 0.00 0.00 0.00 62 1015.3
20260505232526 60 22 2.6 5.2 0.00 0.00 0.00 61 1015.2
20260505232023 60 211 0.0 2.6 0.00 0.00 0.00 61 1015.4
20260505231520 62 352 3.5 6.1 0.00 0.00 0.00 60 1015.3
20260505231019 62 206 0.0 2.6 0.00 0.00 0.00 57 1015.3
20260505230515 62 276 0.0 1.7 0.00 0.00 0.00 56 1015.3
20260505230012 63 223 1.7 4.3 0.00 0.00 0.00 56 1015.3
20260505225509 62 210 0.0 1.7 0.00 0.00 0.00 57 1015.4
20260505225005 63 210 0.0 4.3 0.00 0.00 0.00 56 1015.4
20260505224502 63 214 0.0 1.7 0.00 0.00 0.00 55 1015.5
20260505223959 63 249 1.7 1.7 0.00 0.00 0.00 54 1015.3
20260505223456 64 328 2.6 4.3 0.00 0.00 0.00 55 1015.5
20260505222952 64 207 0.0 1.7 0.00 0.00 0.00 54 1015.4
20260505222449 64 57 1.7 1.7 0.00 0.00 0.00 54 1015.4
20260505221944 64 220 0.9 2.6 0.00 0.00 0.00 53 1015.5
20260505221442 65 213 0.9 2.6 0.00 0.00 0.00 52 1015.6
20260505220939 65 227 0.9 2.6 0.00 0.00 0.00 52 1015.5
20260505220436 66 219 0.0 1.7 0.00 0.00 0.00 50 1015.5
20260505215934 66 197 0.0 1.7 0.00 0.00 0.00 50 1015.6
20260505215432 67 188 0.9 0.9 0.00 0.00 0.00 48 1015.4
20260505214929 66 221 1.7 2.6 0.00 0.00 0.00 48 1015.4
20260505214427 65 203 0.0 1.7 0.00 0.00 0.00 50 1015.7
20260505213924 64 194 0.0 2.6 0.00 0.00 0.00 51 1015.6
20260505213421 64 281 1.7 2.6 0.00 0.00 0.00 52 1015.7
20260505212917 63 225 0.0 2.6 0.00 0.00 0.00 53 1015.5
20260505212415 63 211 1.7 6.1 0.00 0.00 0.00 53 1015.7
20260505211911 63 213 0.0 5.2 0.00 0.00 0.00 53 1015.8
20260505211409 63 222 0.0 2.6 0.00 0.00 0.00 53 1015.6
20260505210904 65 9 2.6 6.1 0.00 0.00 0.00 51 1015.5
20260505210402 65 183 0.0 1.7 0.00 0.00 0.00 50 1015.4
20260505205859 66 180 1.7 6.1 0.00 0.00 0.00 51 1015.6
20260505205357 66 210 0.0 5.2 0.00 0.00 0.00 51 1015.7
20260505204854 66 213 0.9 2.6 0.00 0.00 0.00 51 1015.5
20260505204351 67 206 0.0 2.6 0.00 0.00 0.00 47 1015.5
20260505203848 68 256 1.7 2.6 0.00 0.00 0.00 46 1015.4
20260505203345 68 264 0.9 4.3 0.00 0.00 0.00 47 1015.6
20260505202841 68 209 0.0 2.6 0.00 0.00 0.00 46 1015.4
20260505202337 69 191 0.0 4.3 0.00 0.00 0.00 44 1015.4
20260505201834 66 216 0.0 1.7 0.00 0.00 0.00 47 1015.5